CW6666 Weather Reports


Display with metric or nautical units.
time (UTC)temp
F
wind
direction
speed
MPH
gust
MPH
rain 1hr
in
rain 24hr
in
rain mn
in
humidity
%
barometer
mb
20160629090034 85 37 11.0 12.0 0.00 0.03 0.03 81 1008.0
20160629085534 85 34 11.0 12.0 0.00 0.03 0.03 81 1007.9
20160629085034 85 32 8.0 13.0 0.00 0.03 0.03 82 1007.9
20160629084534 85 37 12.0 13.0 0.00 0.03 0.03 81 1007.9
20160629084034 85 32 7.0 13.0 0.00 0.03 0.03 80 1007.8
20160629083534 85 36 10.0 12.0 0.00 0.03 0.03 81 1007.8
20160629083034 85 33 11.0 13.0 0.00 0.03 0.03 82 1007.8
20160629082534 85 33 10.0 13.0 0.00 0.03 0.03 80 1007.7
20160629082034 85 35 10.0 13.0 0.00 0.03 0.03 79 1007.7
20160629081534 85 38 11.0 13.0 0.00 0.03 0.03 78 1007.7
20160629081034 85 51 9.0 14.0 0.00 0.03 0.03 78 1007.7
20160629080534 85 42 11.0 14.0 0.00 0.03 0.03 79 1007.7
20160629080034 86 50 11.0 13.0 0.00 0.03 0.03 79 1007.7
20160629075534 86 38 9.0 13.0 0.00 0.03 0.03 78 1007.7
20160629075034 86 38 11.0 14.0 0.00 0.03 0.03 77 1007.7
20160629074534 86 44 13.0 14.0 0.00 0.03 0.03 76 1007.7
20160629074034 86 43 13.0 14.0 0.00 0.03 0.03 77 1007.6
20160629073534 86 38 12.0 14.0 0.00 0.03 0.03 75 1007.6
20160629073034 86 47 10.0 14.0 0.00 0.03 0.03 78 1007.6
20160629072534 86 49 12.0 14.0 0.00 0.03 0.03 77 1007.5
20160629072034 86 48 11.0 15.0 0.00 0.03 0.03 79 1007.5
20160629071534 86 39 13.0 15.0 0.00 0.03 0.03 78 1007.5
20160629071035 86 55 13.0 16.0 0.00 0.03 0.03 79 1007.6
20160629070534 86 51 11.0 16.0 0.00 0.03 0.03 77 1007.6
20160629070034 86 54 12.0 15.0 0.00 0.03 0.03 76 1007.6
20160629065534 86 53 12.0 15.0 0.00 0.03 0.03 75 1007.6
20160629065034 86 56 10.0 15.0 0.00 0.03 0.03 78 1007.6
20160629064534 86 62 13.0 16.0 0.00 0.03 0.03 77 1007.6
20160629064034 86 53 13.0 16.0 0.00 0.03 0.03 78 1007.6
20160629063534 86 35 14.0 16.0 0.00 0.03 0.03 79 1007.6
20160629063034 86 35 13.0 15.0 0.00 0.03 0.03 77 1007.6
20160629062534 87 44 13.0 15.0 0.00 0.03 0.03 76 1007.6
20160629062034 87 49 12.0 16.0 0.00 0.03 0.03 77 1007.6
20160629061534 87 51 14.0 17.0 0.00 0.03 0.03 77 1007.6
20160629061034 86 39 12.0 17.0 0.00 0.03 0.03 76 1007.6
20160629060534 87 38 12.0 15.0 0.00 0.03 0.03 78 1007.6
20160629060034 87 53 14.0 15.0 0.00 0.03 0.03 79 1007.6
20160629055534 87 49 11.0 15.0 0.00 0.03 0.03 78 1007.7
20160629055034 87 39 11.0 14.0 0.00 0.03 0.03 77 1007.7
20160629054534 87 45 11.0 14.0 0.00 0.03 0.03 79 1007.7
20160629054034 87 57 10.0 14.0 0.00 0.03 0.03 79 1007.7
20160629053534 87 32 11.0 14.0 0.00 0.03 0.03 78 1007.7
20160629053034 87 49 11.0 14.0 0.00 0.03 0.03 75 1007.7
20160629052534 87 48 12.0 13.0 0.00 0.03 0.03 76 1007.7
20160629052034 87 39 11.0 14.0 0.00 0.03 0.03 77 1007.7
20160629051534 87 44 10.0 14.0 0.00 0.03 0.03 79 1007.7
20160629051034 87 41 11.0 13.0 0.00 0.03 0.03 76 1007.9
20160629050534 87 46 11.0 14.0 0.00 0.03 0.03 77 1007.9
20160629050034 87 48 10.0 14.0 0.00 0.03 0.03 78 1007.9
20160629045534 87 46 11.0 14.0 0.00 0.03 0.03 76 1007.9
20160629045034 87 53 11.0 14.0 0.00 0.03 0.03 79 1007.9
20160629044534 87 54 12.0 14.0 0.00 0.03 0.03 77 1007.9
20160629044034 87 53 12.0 14.0 0.00 0.03 0.03 75 1008.2
20160629043534 87 51 13.0 14.0 0.00 0.03 0.03 75 1008.2
20160629043034 87 59 11.0 14.0 0.00 0.03 0.03 76 1008.2
20160629042534 88 44 11.0 13.0 0.00 0.03 0.03 75 1008.2
20160629042034 88 39 12.0 14.0 0.00 0.03 0.03 75 1008.2
20160629041534 88 48 11.0 14.0 0.00 0.03 0.03 76 1008.2
20160629041034 88 49 11.0 14.0 0.00 0.03 0.03 73 1008.2
20160629040534 88 39 12.0 14.0 0.00 0.03 0.03 74 1008.2
20160629040034 88 52 10.0 14.0 0.00 0.03 0.03 75 1008.2
20160629035534 87 41 12.0 14.0 0.00 0.03 0.03 74 1008.4
20160629035034 87 52 12.0 16.0 0.00 0.03 0.03 77 1008.4
20160629034534 87 52 12.0 16.0 0.00 0.03 0.03 77 1008.4
20160629034034 87 38 11.0 14.0 0.00 0.03 0.03 79 1008.6
20160629033534 87 59 12.0 13.0 0.00 0.03 0.03 78 1008.6
20160629033034 88 55 9.0 13.0 0.00 0.03 0.03 78 1008.6
20160629032534 88 43 11.0 15.0 0.00 0.03 0.03 77 1008.7
20160629032034 88 40 11.0 15.0 0.00 0.03 0.03 77 1008.7
20160629031534 87 53 14.0 14.0 0.00 0.03 0.03 75 1008.7
20160629031034 87 47 12.0 14.0 0.00 0.03 0.03 76 1008.8
20160629030534 87 44 10.0 13.0 0.00 0.03 0.03 79 1008.8
20160629030034 87 35 10.0 14.0 0.00 0.03 0.03 81 1008.8
20160629025534 87 33 11.0 14.0 0.00 0.03 0.03 80 1009.0
20160629025034 87 51 11.0 15.0 0.00 0.03 0.03 79 1009.0
20160629024534 87 45 14.0 15.0 0.00 0.03 0.03 79 1009.0
20160629024034 87 42 13.0 14.0 0.00 0.03 0.03 83 1009.2
20160629023534 88 44 10.0 13.0 0.00 0.03 0.03 79 1009.2
20160629023034 88 47 12.0 13.0 0.00 0.03 0.03 79 1009.2
20160629022534 88 34 11.0 14.0 0.00 0.03 0.03 77 1009.3
20160629022034 87 38 11.0 14.0 0.00 0.03 0.03 80 1009.3
20160629021534 87 56 10.0 15.0 0.00 0.03 0.03 78 1009.3
20160629021034 88 54 14.0 15.0 0.00 0.03 0.03 78 1009.5
20160629020534 88 50 13.0 15.0 0.00 0.03 0.03 77 1009.5
20160629020034 88 46 11.0 15.0 0.00 0.03 0.03 79 1009.5
20160629015534 87 46 12.0 14.0 0.00 0.03 0.03 77 1009.8
20160629015034 87 43 13.0 14.0 0.00 0.03 0.03 77 1009.8
20160629014534 87 43 10.0 14.0 0.00 0.03 0.03 80 1009.8
20160629014034 87 53 13.0 14.0 0.00 0.03 0.03 77 1009.8
20160629013534 87 44 12.0 14.0 0.00 0.03 0.03 79 1009.8
20160629013034 87 37 13.0 14.0 0.00 0.03 0.03 80 1009.8
20160629012534 87 56 12.0 13.0 0.00 0.03 0.03 79 1010.1
20160629012034 87 53 11.0 15.0 0.00 0.03 0.03 81 1010.1
20160629011534 87 40 12.0 15.0 0.00 0.03 0.03 82 1010.1
20160629011034 87 48 11.0 14.0 0.00 0.03 0.03 79 1010.2
20160629010534 87 59 11.0 14.0 0.00 0.03 0.03 80 1010.2
20160629010034 87 48 13.0 14.0 0.00 0.03 0.03 78 1010.2
20160629005534 87 47 12.0 14.0 0.00 0.03 0.03 79 1010.3
20160629005034 87 54 13.0 15.0 0.00 0.03 0.03 79 1010.3
20160629004534 87 42 14.0 15.0 0.00 0.03 0.03 79 1010.3
20160629004034 87 42 13.0 14.0 0.00 0.03 0.03 81 1010.5
20160629003534 86 53 12.0 14.0 0.00 0.03 0.03 82 1010.5
20160629003034 87 42 12.0 14.0 0.00 0.03 0.03 80 1010.5
20160629002534 87 50 13.0 14.0 0.00 0.03 0.03 79 1010.6
20160629002034 87 49 13.0 14.0 0.00 0.03 0.03 80 1010.6
20160629001534 87 49 11.0 14.0 0.00 0.03 0.03 80 1010.6
20160629001004 87 50 12.0 14.0 0.00 0.03 0.03 78 1010.7
20160629000534 86 46 11.0 14.0 0.00 0.03 0.03 80 1010.7
20160629000034 86 44 12.0 14.0 0.00 0.03 0.03 82 1010.7
20160628235534 87 40 13.0 13.0 0.00 0.03 0.03 83 1010.7
20160628235034 86 56 9.0 13.0 0.00 0.03 0.03 80 1010.7
20160628234534 86 51 9.0 14.0 0.00 0.03 0.03 80 1010.7
20160628234034 86 55 13.0 14.0 0.00 0.03 0.03 83 1010.8
20160628233534 86 52 11.0 13.0 0.00 0.03 0.03 80 1010.8
20160628233034 86 49 12.0 13.0 0.00 0.03 0.03 81 1010.8
20160628232534 86 34 10.0 12.0 0.00 0.03 0.03 81 1010.7
20160628232034 86 46 11.0 12.0 0.00 0.03 0.03 81 1010.7
20160628231533 86 46 10.0 13.0 0.00 0.03 0.03 81 1010.7
20160628231004 86 51 12.0 13.0 0.00 0.03 0.03 79 1010.8
20160628230534 86 61 10.0 12.0 0.00 0.03 0.03 81 1010.8
20160628230034 86 50 10.0 13.0 0.00 0.03 0.03 80 1010.8
20160628225504 86 46 7.0 14.0 0.00 0.03 0.03 81 1010.7
20160628225034 86 59 12.0 14.0 0.00 0.03 0.03 80 1010.7
20160628224534 86 53 12.0 14.0 0.00 0.03 0.03 80 1010.7
20160628224033 85 54 11.0 16.0 0.00 0.03 0.03 80 1010.6
20160628223534 86 44 14.0 16.0 0.00 0.03 0.03 80 1010.6
20160628223033 86 53 12.0 15.0 0.00 0.03 0.03 81 1010.6
20160628222533 86 50 11.0 15.0 0.00 0.03 0.03 80 1010.5
20160628222034 85 58 11.0 14.0 0.00 0.03 0.03 82 1010.5
20160628221534 85 49 10.0 14.0 0.00 0.03 0.03 81 1010.5
20160628221034 85 44 13.0 14.0 0.00 0.03 0.03 82 1010.5
20160628220534 85 53 12.0 14.0 0.00 0.03 0.03 82 1010.5
20160628220034 85 57 10.0 15.0 0.00 0.03 0.03 83 1010.5
20160628215504 85 53 12.0 15.0 0.00 0.03 0.03 82 1010.5
20160628215034 85 55 11.0 12.0 0.00 0.03 0.03 84 1010.5
20160628214504 84 53 11.0 12.0 0.00 0.03 0.03 86 1010.5
20160628214034 84 55 6.0 10.0 0.00 0.03 0.03 85 1010.4
20160628213533 84 47 6.0 11.0 0.00 0.03 0.03 84 1010.4
20160628213033 84 37 7.0 11.0 0.00 0.03 0.03 84 1010.4
20160628212533 84 49 10.0 11.0 0.00 0.03 0.03 82 1010.3
20160628212033 83 60 9.0 11.0 0.00 0.03 0.03 80 1010.3
20160628211533 83 49 7.0 15.0 0.00 0.03 0.03 81 1010.3
20160628211034 83 58 9.0 17.0 0.00 0.03 0.03 82 1010.3
20160628210503 83 45 14.0 18.0 0.00 0.03 0.03 84 1010.3
20160628210033 83 58 15.0 18.0 0.00 0.03 0.03 84 1010.3
20160628205533 84 40 12.0 14.0 0.00 0.03 0.03 84 1010.3
20160628205034 84 45 10.0 12.0 0.00 0.03 0.03 85 1010.3
20160628204533 83 64 8.0 11.0 0.00 0.03 0.03 85 1010.3
20160628204034 83 71 8.0 11.0 0.00 0.03 0.03 86 1010.2
20160628203534 83 53 6.0 12.0 0.00 0.03 0.03 85 1010.2
20160628203034 83 57 10.0 12.0 0.00 0.03 0.03 86 1010.2
20160628202534 83 53 12.0 12.0 0.00 0.03 0.03 85 1010.0
20160628202034 83 55 10.0 12.0 0.00 0.03 0.03 86 1010.0
20160628201533 83 61 10.0 12.0 0.00 0.03 0.03 87 1010.0
20160628201034 82 49 10.0 11.0 0.00 0.03 0.03 89 1009.8
20160628200533 81 64 10.0 11.0 0.00 0.03 0.03 92 1009.8
20160628200033 80 22 2.0 2.0 0.00 0.03 0.03 93 1009.8
20160628195503 79 325 0.0 0.0 0.00 0.03 0.03 93 1009.8
20160628195003 79 325 0.0 1.0 0.00 0.03 0.03 93 1009.8
20160628194503 79 325 0.0 3.0 0.00 0.03 0.03 92 1009.8
20160628194033 80 325 0.0 3.0 0.00 0.03 0.03 92 1009.7
20160628193534 80 32 1.0 3.0 0.00 0.03 0.03 91 1009.7
20160628193034 80 32 0.0 4.0 0.01 0.03 0.03 91 1009.7
20160628192534 80 32 0.0 4.0 0.03 0.03 0.03 90 1009.6
20160628192033 80 32 2.0 2.0 0.03 0.03 0.03 91 1009.6
20160628191533 80 333 0.0 2.0 0.03 0.03 0.03 90 1009.6
20160628191033 80 333 0.0 2.0 0.03 0.03 0.03 89 1009.6
20160628190503 81 39 1.0 3.0 0.03 0.03 0.03 89 1009.6
20160628190003 81 13 0.0 6.0 0.03 0.03 0.03 88 1009.6
20160628185504 81 11 2.0 6.0 0.03 0.03 0.03 89 1009.7
20160628185004 81 35 5.0 6.0 0.03 0.03 0.03 88 1009.7
20160628184534 81 32 3.0 10.0 0.03 0.03 0.03 86 1009.7
20160628184004 81 30 5.0 10.0 0.03 0.03 0.03 86 1009.7
20160628183534 82 43 7.0 19.0 0.03 0.03 0.03 86 1009.7
20160628183003 83 22 7.0 19.0 0.02 0.02 0.02 87 1009.7
20160628182533 83 53 19.0 19.0 0.00 0.00 0.00 87 1009.7
20160628182037 84 50 10.0 12.0 0.00 0.00 0.00 85 1009.7
20160628181533 84 37 10.0 12.0 0.00 0.00 0.00 85 1009.7
20160628181034 84 53 11.0 13.0 0.00 0.00 0.00 84 1009.6
20160628180533 84 63 9.0 13.0 0.00 0.00 0.00 84 1009.6
20160628180003 84 62 10.0 13.0 0.00 0.00 0.00 84 1009.6
20160628175533 84 54 11.0 12.0 0.00 0.00 0.00 84 1009.6
20160628175003 84 49 10.0 12.0 0.00 0.00 0.00 85 1009.6
20160628174533 84 58 11.0 13.0 0.00 0.00 0.00 83 1009.6
20160628174034 84 63 9.0 13.0 0.00 0.00 0.00 83 1009.8
20160628173504 84 61 11.0 13.0 0.00 0.00 0.00 85 1009.8
20160628173004 84 62 11.0 13.0 0.00 0.00 0.00 83 1009.8
20160628172533 84 61 10.0 13.0 0.00 0.00 0.00 85 1009.6
20160628172034 84 50 10.0 13.0 0.00 0.00 0.00 85 1009.6
20160628171503 84 56 7.0 12.0 0.00 0.00 0.00 85 1009.6
20160628171034 84 54 10.0 12.0 0.00 0.00 0.00 85 1009.6
20160628170533 84 54 9.0 13.0 0.00 0.00 0.00 85 1009.6
20160628170003 84 47 9.0 13.0 0.00 0.00 0.00 85 1009.6
20160628165503 84 43 10.0 13.0 0.00 0.00 0.00 84 1009.7
20160628165033 84 55 10.0 13.0 0.00 0.00 0.00 85 1009.7
20160628164533 84 60 10.0 13.0 0.00 0.00 0.00 84 1009.7
20160628164003 84 58 10.0 12.0 0.00 0.00 0.00 85 1009.6
20160628163534 84 63 10.0 12.0 0.00 0.00 0.00 84 1009.6
20160628163003 84 58 10.0 12.0 0.00 0.00 0.00 84 1009.6
20160628162534 84 59 10.0 12.0 0.00 0.00 0.00 85 1009.7
20160628162003 84 67 8.0 14.0 0.00 0.00 0.00 86 1009.7
20160628161533 84 51 11.0 14.0 0.00 0.00 0.00 85 1009.7
20160628161033 84 47 10.0 13.0 0.00 0.00 0.00 85 1009.6
20160628160533 84 59 10.0 13.0 0.00 0.00 0.00 85 1009.6
20160628160034 84 46 10.0 13.0 0.00 0.00 0.00 86 1009.6
20160628155533 84 38 10.0 13.0 0.00 0.00 0.00 85 1009.7
20160628155003 84 40 12.0 13.0 0.00 0.00 0.00 85 1009.7
20160628154534 84 42 12.0 13.0 0.00 0.00 0.00 86 1009.7
20160628154003 84 44 12.0 14.0 0.00 0.00 0.00 86 1009.7
20160628153503 84 43 10.0 14.0 0.00 0.00 0.00 86 1009.7
20160628153003 84 59 10.0 13.0 0.00 0.00 0.00 87 1009.7
20160628152504 84 46 12.0 13.0 0.00 0.00 0.00 89 1009.8
20160628152003 84 44 9.0 13.0 0.00 0.00 0.00 88 1009.8
20160628151534 84 46 11.0 15.0 0.00 0.00 0.00 88 1009.8
20160628151004 84 49 10.0 16.0 0.00 0.00 0.00 86 1009.8
20160628150534 84 54 14.0 16.0 0.00 0.00 0.00 86 1009.8
20160628150033 84 67 14.0 15.0 0.00 0.00 0.00 85 1009.8
20160628145533 84 42 9.0 13.0 0.00 0.00 0.00 84 1009.9
20160628145034 84 50 8.0 13.0 0.00 0.00 0.00 83 1009.9
20160628144534 84 46 10.0 12.0 0.00 0.00 0.00 85 1009.9
20160628144033 84 94 7.0 12.0 0.00 0.00 0.00 85 1010.1
20160628143503 84 77 9.0 14.0 0.00 0.00 0.00 84 1010.1
20160628143003 84 50 12.0 14.0 0.00 0.00 0.00 82 1010.1
20160628142503 84 49 9.0 14.0 0.00 0.00 0.00 83 1010.3
20160628142033 84 55 10.0 14.0 0.00 0.00 0.00 83 1010.3
20160628141503 84 46 13.0 14.0 0.00 0.00 0.00 82 1010.3
20160628141034 84 57 11.0 12.0 0.00 0.00 0.00 85 1010.3
20160628140504 84 65 7.0 9.0 0.00 0.00 0.00 85 1010.3
20160628140033 84 61 6.0 9.0 0.00 0.00 0.00 84 1010.3
20160628135533 84 47 7.0 10.0 0.00 0.00 0.00 84 1010.7
20160628135034 84 62 6.0 10.0 0.00 0.00 0.00 84 1010.7
20160628134534 84 60 9.0 11.0 0.00 0.00 0.00 85 1010.7
20160628134033 84 60 9.0 11.0 0.00 0.00 0.00 86 1010.8
20160628133533 84 69 7.0 9.0 0.00 0.00 0.00 85 1010.8
20160628133034 84 61 5.0 8.0 0.00 0.00 0.00 83 1010.8
20160628132533 84 59 6.0 9.0 0.00 0.00 0.00 84 1010.8
20160628132034 84 54 6.0 9.0 0.00 0.00 0.00 84 1010.8
20160628131534 84 53 8.0 10.0 0.00 0.00 0.00 83 1010.8
20160628131033 84 46 7.0 12.0 0.00 0.00 0.00 82 1010.9
20160628130533 84 46 10.0 12.0 0.00 0.00 0.00 84 1010.9
20160628130033 84 39 10.0 14.0 0.00 0.00 0.00 84 1010.9
20160628125533 84 40 11.0 15.0 0.00 0.00 0.00 85 1010.8
20160628125033 84 46 13.0 15.0 0.00 0.00 0.00 84 1010.8
20160628124534 84 46 11.0 12.0 0.00 0.00 0.00 83 1010.8
20160628124034 84 57 10.0 12.0 0.00 0.00 0.00 81 1010.8
20160628123533 84 43 9.0 12.0 0.00 0.00 0.00 83 1010.8
20160628123033 84 54 11.0 12.0 0.00 0.00 0.00 82 1010.8
20160628122533 84 49 10.0 12.0 0.00 0.00 0.00 84 1010.6
20160628122033 84 34 10.0 12.0 0.00 0.00 0.00 84 1010.6
20160628121533 84 55 9.0 11.0 0.00 0.00 0.00 84 1010.6
20160628121034 84 44 10.0 11.0 0.00 0.00 0.00 84 1010.6
20160628120533 84 57 10.0 11.0 0.00 0.00 0.00 82 1010.6
20160628120034 84 58 9.0 12.0 0.00 0.00 0.00 83 1010.6
20160628115533 84 42 10.0 12.0 0.00 0.00 0.00 83 1010.5
20160628115033 84 62 9.0 12.0 0.00 0.00 0.00 82 1010.5
20160628114534 84 51 11.0 13.0 0.00 0.00 0.00 82 1010.5
20160628114034 84 61 10.0 13.0 0.00 0.00 0.00 81 1010.4
20160628113534 84 55 10.0 13.0 0.00 0.00 0.00 81 1010.4
20160628113033 84 48 11.0 13.0 0.00 0.00 0.00 80 1010.4
20160628112533 84 51 9.0 11.0 0.00 0.00 0.00 81 1010.4
20160628112034 84 57 9.0 11.0 0.00 0.00 0.00 80 1010.4
20160628111533 84 53 8.0 11.0 0.00 0.00 0.00 82 1010.4
20160628111034 84 63 8.0 12.0 0.00 0.00 0.00 81 1010.3
20160628110533 84 63 9.0 12.0 0.00 0.00 0.00 82 1010.3
20160628110034 84 53 10.0 12.0 0.00 0.00 0.00 83 1010.3
20160628105534 84 49 9.0 11.0 0.00 0.00 0.00 81 1010.3
20160628105034 85 61 9.0 12.0 0.00 0.00 0.00 83 1010.3
20160628104534 85 57 10.0 12.0 0.00 0.00 0.00 82 1010.3
20160628104033 85 58 8.0 11.0 0.00 0.00 0.00 81 1010.3
20160628103533 85 57 9.0 11.0 0.00 0.00 0.00 81 1010.3
20160628103033 85 49 10.0 11.0 0.00 0.00 0.00 80 1010.3
20160628102534 85 53 9.0 11.0 0.00 0.00 0.00 81 1010.3
20160628102033 85 53 10.0 12.0 0.00 0.00 0.00 81 1010.3
20160628101533 85 53 8.0 12.0 0.00 0.00 0.00 81 1010.3
20160628101033 85 59 10.0 11.0 0.00 0.00 0.00 79 1010.2
20160628100533 85 52 9.0 11.0 0.00 0.00 0.00 80 1010.2
20160628100034 85 51 9.0 11.0 0.00 0.00 0.00 80 1010.2
20160628095533 85 53 9.0 11.0 0.00 0.00 0.00 80 1009.8
20160628095033 85 49 10.0 11.0 0.00 0.00 0.00 80 1009.8
20160628094534 85 63 8.0 11.0 0.00 0.00 0.00 81 1009.8
20160628094033 85 64 10.0 11.0 0.00 0.00 0.00 81 1009.8
20160628093534 85 67 7.0 12.0 0.00 0.00 0.00 81 1009.8
20160628093033 85 59 11.0 12.0 0.00 0.00 0.00 82 1009.8
20160628092533 85 60 9.0 10.0 0.00 0.00 0.00 83 1009.6
20160628092034 85 65 9.0 10.0 0.00 0.00 0.00 81 1009.6
20160628091540 85 59 9.0 11.0 0.00 0.00 0.00 81 1009.6
20160628091033 85 59 9.0 11.0 0.00 0.00 0.00 80 1009.5
20160628090534 85 46 10.0 12.0 0.00 0.00 0.00 81 1009.5